Temperature
14 14 15 15 19 20 21 21 20 19 20 19 19 20 21 21 22 20 15 15 16 16 16 16 17 17 17 17 17 17 17 17 17 17 17 17 17 17 17 17 17 17 17 17 17 16 16 16 16
14 14 15 17 20 21 21 20 19 19 19 17 18 19 20 19 17 16 14 15 15 16 16 16 17 17 17 17 17 17 17 17 17 17 17 17 17 17 17 17 17 17 17 16 16 16 16 16 16
14 14 16 19 19 21 21 19 19 18 17 17 18 18 18 18 16 15 14 15 15 15 16 16 16 16 16 16 17 17 16 16 16 16 16 16 16 16 16 16 16 16 16 16 16 16 16 16 15
13 14 16 18 19 19 19 18 17 18 17 17 18 18 17 15 14 14 14 15 15 15 15 16 16 16 16 16 16 16 16 16 16 16 16 16 16 16 16 16 16 16 16 16 16 16 15 15 15
13 16 18 18 18 18 18 16 16 18 18 17 17 18 17 14 14 14 14 14 15 15 15 15 16 16 16 16 16 16 16 16 16 16 16 16 16 16 16 16 16 16 16 16 16 15 15 15 15
15 17 18 19 18 17 17 15 16 17 17 16 16 17 16 14 13 14 14 14 14 14 15 15 15 16 16 16 16 16 16 16 16 16 16 15 15 15 15 15 16 15 15 15 15 15 15 15 15
15 17 18 18 17 17 16 14 16 16 17 16 15 16 16 14 13 13 13 14 14 14 14 15 15 15 15 16 16 16 16 16 16 15 15 15 15 15 15 15 15 15 15 15 15 15 15 15 14
14 16 16 16 16 16 15 14 14 14 15 14 14 16 16 14 13 13 13 13 13 13 14 14 14 14 15 15 15 15 15 15 15 15 15 15 15 15 15 15 15 15 15 15 15 15 15 15 14
13 16 16 16 16 15 14 14 13 12 13 13 13 14 13 12 12 12 12 13 13 13 13 13 14 14 14 14 14 15 15 15 15 15 15 15 15 15 14 14 15 14 14 14 14 14 14 14 14
13 15 16 14 14 14 13 13 13 13 14 14 13 13 12 12 11 12 12 12 12 12 13 13 13 13 13 14 14 14 14 14 14 14 14 14 14 14 14 14 14 14 14 14 14 14 14 14 13
13 14 13 12 12 12 12 12 12 12 14 14 13 13 12 11 11 11 12 12 12 11 12 12 12 13 13 13 13 13 13 14 14 14 14 14 14 14 14 14 14 14 14 13 13 13 13 13 13
12 12 11 11 10 10 11 11 12 12 13 12 12 11 11 11 11 11 11 11 11 11 11 11 12 12 12 12 12 13 13 13 13 13 13 13 13 13 13 13 13 13 13 13 13 13 13 13 13
12 12 10 10 9 9 10 11 11 11 11 11 10 10 10 11 11 11 10 10 10 11 11 11 11 12 12 12 12 12 12 12 12 12 12 12 12 12 13 13 13 13 13 13 13 13 13 12 12
11 10 10 10 10 10 10 11 11 12 11 11 10 10 10 10 10 10 10 10 10 10 11 11 11 11 11 11 11 11 11 12 11 12 12 12 12 12 12 12 12 12 12 12 12 12 12 12 12
9 11 12 11 10 10 10 12 12 12 11 11 11 11 10 10 9 9 9 9 10 10 10 10 10 11 11 11 11 11 11 11 11 11 11 11 11 11 11 11 11 12 12 12 12 12 12 12 12
10 12 13 12 11 10 10 13 14 11 11 11 11 11 10 10 9 9 9 9 9 9 10 10 10 10 10 10 10 10 10 10 10 10 11 11 11 11 11 11 11 11 11 11 11 11 11 11 12
12 13 13 12 11 10 10 12 14 12 11 11 11 11 10 10 9 9 9 9 9 9 9 9 9 10 9 10 10 10 10 10 10 10 10 10 10 10 10 10 10 11 11 11 11 11 11 11 11
13 13 12 12 11 10 10 11 13 12 11 11 11 11 10 10 9 9 9 9 9 9 9 9 9 9 9 9 9 9 9 9 9 9 9 10 10 10 10 10 10 10 10 10 10 11 11 10 10
11 11 11 11 10 9 10 11 12 12 11 11 11 11 10 10 9 9 9 9 9 9 9 9 9 9 8 8 8 9 9 9 9 9 9 9 9 9 9 9 9 10 10 10 10 10 10 10 10
10 10 11 11 9 9 10 10 12 12 11 10 10 10 10 9 9 9 8 8 8 8 8 8 8 8 8 8 8 8 8 8 8 8 8 8 8 9 9 9 9 9 9 9 9 9 9 9 9
10 10 11 10 10 9 8 12 13 11 10 9 9 9 9 9 9 8 8 8 8 8 8 8 8 8 8 7 7 8 8 8 8 8 8 8 8 8 8 8 8 8 8 9 9 9 9 9 9
10 10 9 8 9 10 9 11 14 12 11 11 10 10 9 9 8 8 8 8 8 8 8 8 8 8 7 7 7 7 7 7 7 7 7 7 8 7 8 8 8 8 8 8 8 8 8 8 8
9 8 8 8 8 8 9 8 13 11 11 11 11 10 9 8 8 8 8 7 7 7 8 8 7 7 7 7 7 7 7 7 7 7 7 7 7 7 7 7 7 7 7 8 8 8 8 8 8
8 8 7 7 8 8 9 9 12 13 12 12 11 10 9 8 8 8 7 7 7 7 7 7 7 7 7 6 6 6 6 6 6 6 6 6 7 7 7 7 7 7 7 7 8 8 8 8 8
8 9 9 9 9 10 8 8 11 12 11 11 10 10 9 8 8 7 7 7 7 6 7 7 7 6 6 6 6 6 6 6 6 6 6 6 6 6 6 6 7 7 7 7 7 7 7 7 8
8 8 9 10 11 11 8 9 11 11 10 9 8 8 8 7 7 7 7 6 6 6 6 6 6 6 6 6 6 6 6 6 6 5 5 5 6 6 6 6 6 6 7 7 7 7 7 7 7
8 8 8 8 7 7 10 10 10 10 10 9 9 8 8 8 7 7 6 6 6 6 5 5 5 6 6 5 5 5 5 5 5 5 5 5 5 5 5 6 6 6 6 6 6 7 7 7 7
7 8 7 7 7 9 10 10 11 10 10 10 10 9 8 7 7 6 6 6 5 5 5 5 5 5 5 5 5 5 5 5 5 5 5 5 5 5 5 5 5 6 6 6 6 6 6 7 7
6 6 7 7 7 8 9 11 11 10 10 10 10 9 8 7 6 6 6 5 5 5 5 5 5 5 5 5 5 4 4 4 4 4 5 5 5 5 5 5 5 5 6 6 6 6 6 6 6
7 7 7 6 6 6 7 10 11 10 10 9 9 8 7 6 6 5 5 5 4 4 4 4 4 4 4 4 4 4 4 4 4 4 4 4 4 4 4 5 5 5 5 6 6 6 6 6 6
Wind_Speed
3 2 3 3 4 5 7 4 4 4 3 0 1 2 1 1 1 3 4 10 11 8 6 4 5 3 2 1 1 3 4 5 6 8 9 10 11 12 12 12 12 12 12 12 13 13 14 14 13
2 2 4 4 6 7 6 5 6 4 0 1 0 2 2 1 3 4 5 10 10 8 6 5 6 5 3 2 1 1 2 4 5 7 8 9 11 12 12 12 12 12 12 12 12 13 14 14 14
2 2 4 4 6 7 4 4 4 1 1 1 0 0 0 1 3 3 7 9 8 7 7 7 8 6 4 3 2 1 2 3 4 6 7 8 10 11 12 13 13 13 12 12 12 13 14 14 14
3 4 3 6 8 4 2 4 1 1 2 0 1 1 1 2 2 5 8 9 8 7 7 7 8 7 6 4 3 3 2 3 4 5 6 7 9 11 11 12 13 13 13 13 12 12 13 14 14
3 4 6 7 7 4 3 2 2 3 1 0 2 2 2 2 3 7 9 9 8 7 7 7 7 7 7 5 4 3 2 2 4 5 6 7 8 9 11 11 13 14 14 14 14 13 13 14 15
4 4 6 8 7 5 3 3 4 4 3 2 3 4 3 2 4 8 9 8 7 6 7 6 5 6 7 6 5 4 3 3 4 5 6 7 8 9 10 12 12 14 15 14 14 14 14 14 15
5 4 5 5 5 5 3 2 3 4 5 3 3 4 3 2 6 9 8 7 6 6 6 6 6 5 5 5 6 6 5 5 4 5 6 7 8 9 10 11 13 13 14 15 15 15 15 15 15
2 3 4 5 6 5 2 2 2 4 4 3 4 5 4 3 8 9 8 7 6 6 6 6 6 6 5 5 5 5 5 5 5 5 5 7 9 10 11 11 12 12 13 15 15 15 16 16 16
2 4 6 5 5 3 3 3 2 4 6 6 6 6 5 7 9 9 8 7 7 6 6 6 6 6 6 6 5 5 5 5 5 4 3 5 7 9 10 11 11 12 13 14 15 16 17 16 16
4 5 4 2 2 2 2 4 5 5 8 8 7 7 6 8 9 9 9 9 9 8 7 6 6 6 6 5 5 4 4 4 5 5 4 4 6 7 8 9 11 13 13 14 16 16 17 15 13
3 4 2 2 2 3 5 6 6 7 9 8 8 8 8 9 9 10 10 10 9 8 7 7 6 6 5 4 4 4 4 4 5 5 6 5 4 5 6 6 8 10 12 11 12 14 14 13 11
3 3 3 2 2 4 7 7 8 11 11 8 8 10 10 11 10 10 10 10 9 8 7 7 6 5 5 5 4 4 3 3 4 5 6 4 3 4 4 5 6 7 7 8 9 9 12 13 13
4 3 3 4 6 8 10 13 12 14 13 11 10 10 11 11 11 10 10 9 8 8 8 7 6 5 4 4 4 4 4 4 4 5 5 5 4 5 5 5 6 7 7 8 8 10 11 11 12
1 4 6 7 8 6 9 12 9 12 8 8 9 10 11 11 11 10 9 8 8 7 7 7 6 5 4 4 4 4 4 4 5 5 6 7 6 6 5 6 6 7 7 8 9 11 10 10 9
2 5 6 4 4 3 6 11 10 9 6 9 10 10 10 10 9 9 8 8 8 7 6 6 6 5 5 5 5 4 4 4 5 5 7 7 7 7 6 6 6 6 7 8 8 10 9 9 9
2 4 4 2 2 2 5 10 4 4 7 11 11 10 10 9 9 8 8 7 7 7 6 5 4 5 5 5 5 4 5 5 5 5 6 7 8 8 7 7 7 7 7 7 7 8 8 9 10
3 3 5 3 2 3 5 12 9 8 11 14 13 11 10 9 8 7 7 7 7 6 6 5 5 5 5 5 5 5 5 5 5 5 6 7 8 9 8 7 8 8 7 7 8 8 9 9 9
3 4 5 7 3 6 12 18 18 14 14 15 13 11 9 8 7 6 7 7 6 6 6 6 6 5 6 5 4 5 6 5 5 5 6 7 7 9 9 8 9 8 7 7 8 9 9 9 9
3 6 10 9 7 8 14 20 21 16 12 12 10 8 7 6 6 5 6 6 6 5 6 6 6 6 5 4 5 5 6 6 6 6 7 8 8 9 9 8 9 9 9 10 10 9 10 9 7
5 8 10 8 4 7 14 21 18 11 8 8 8 7 6 5 5 5 5 5 6 6 6 7 6 6 6 5 5 5 6 7 7 6 8 8 8 8 8 9 9 10 9 11 11 10 9 8 8
7 8 8 9 10 6 10 11 5 3 4 4 5 5 4 5 5 5 5 5 6 7 7 7 8 8 7 7 6 5 6 7 7 7 7 8 9 9 9 11 10 10 10 10 12 12 12 10 9
7 4 7 8 8 5 4 8 6 3 5 4 4 4 3 3 4 5 6 7 7 8 8 9 9 9 9 8 7 8 8 9 10 8 8 9 10 10 10 11 11 11 11 11 12 12 11 11 10
3 2 5 7 7 7 5 6 8 3 5 5 4 4 3 3 4 6 7 8 9 9 9 9 10 10 10 9 9 9 10 10 9 9 10 10 9 10 10 11 11 11 11 12 12 12 13 11 11
2 2 2 2 3 5 5 6 7 4 4 4 4 3 4 4 5 7 8 9 9 9 9 10 10 11 11 11 11 11 12 12 12 11 10 9 8 9 11 11 11 12 11 12 12 12 14 13 14
3 3 3 3 4 4 3 6 9 5 4 5 5 5 5 6 6 8 9 10 10 11 10 10 11 12 12 12 12 12 12 13 13 12 11 10 9 9 11 11 11 11 12 12 12 13 13 14 14
5 4 3 5 6 5 4 8 7 4 5 6 7 7 7 8 8 9 10 11 11 12 11 11 12 12 12 12 12 12 12 10 10 12 11 11 10 11 12 12 12 13 13 13 13 12 13 13 14
5 5 1 3 4 7 8 8 10 8 8 8 8 8 9 9 9 10 11 12 12 13 12 12 12 12 12 12 11 11 11 11 11 13 12 11 11 11 12 12 12 13 14 14 13 12 13 13 13
3 4 4 4 4 7 9 9 7 5 6 6 8 9 10 10 10 12 12 13 13 13 12 12 12 12 12 12 11 10 11 12 12 12 13 13 13 12 13 12 13 13 13 14 13 13 13 14 13
7 6 6 5 5 6 9 8 3 6 6 7 9 10 11 12 12 13 13 13 13 13 12 12 12 12 12 12 11 11 12 12 12 13 13 12 12 12 13 13 13 13 13 13 13 13 13 14 13
9 9 10 7 7 7 9 11 4 7 8 9 11 13 13 13 14 15 14 13 12 12 12 11 11 12 12 12 12 12 12 12 12 13 13 12 13 12 13 13 13 14 13 13 14 14 13 14 14
Wind_Direction
314 268 216 205 210 223 229 202 190 165 167 55 318 254 234 266 303 91 48 6 356 357 2 23 15 11 22 44 145 175 178 183 182 181 182 181 180 179 177 176 176 174 173 172 169 163 158 151 147
282 215 199 207 227 225 215 195 191 181 45 344 230 220 203 109 52 63 23 357 355 5 12 20 14 6 8 8 20 189 189 195 193 191 189 188 187 185 183 182 181 179 176 173 169 165 161 156 153
197 226 204 206 224 235 193 165 168 181 319 259 184 84 311 101 71 43 8 352 355 9 14 22 13 5 0 356 347 272 215 208 205 205 200 199 197 192 190 189 186 182 178 174 170 168 165 161 159
196 180 203 225 224 227 206 144 145 197 160 359 256 176 123 58 41 14 358 354 358 7 9 17 12 3 357 353 348 339 268 231 221 215 211 209 209 205 199 196 191 184 179 176 173 172 170 167 164
202 198 206 221 226 214 213 244 258 247 218 356 282 249 204 103 48 4 357 355 354 359 1 5 7 357 351 341 336 332 323 268 241 230 223 218 215 214 212 205 196 188 184 178 176 175 175 173 170
180 207 220 225 215 206 211 246 248 255 259 281 285 263 230 148 3 353 349 348 349 349 350 351 360 351 346 342 328 316 310 296 264 247 239 231 223 218 214 212 204 195 191 184 181 181 180 178 175
204 209 231 227 214 211 201 236 241 255 255 272 288 263 223 216 349 340 338 340 344 346 344 343 338 335 332 335 331 316 308 294 282 259 244 240 230 224 221 217 209 203 199 192 187 185 183 180 177
228 213 216 219 220 211 184 217 251 278 275 294 270 253 246 320 335 329 328 331 334 340 341 339 336 332 324 317 325 327 315 303 290 277 256 241 231 226 223 221 216 210 205 199 194 191 187 184 180
214 224 225 217 216 196 183 235 268 290 269 262 253 270 301 321 320 319 319 319 322 326 331 332 334 333 326 316 320 316 306 296 288 276 265 245 240 234 226 222 219 214 208 204 201 197 190 185 183
207 226 228 209 226 215 240 274 292 275 261 258 254 261 284 303 310 308 309 312 315 315 318 322 325 329 327 318 317 311 304 297 285 281 272 260 251 241 235 220 212 212 206 206 205 200 192 189 188
203 231 192 208 239 269 272 278 274 267 264 261 271 282 293 300 302 302 302 303 305 306 309 312 314 322 325 320 318 317 310 302 288 283 275 266 262 250 235 220 208 209 204 206 204 199 200 199 194
210 223 230 228 234 266 272 275 266 252 261 281 283 289 289 292 295 297 299 301 299 299 301 308 312 312 320 318 306 298 298 297 295 284 276 268 264 257 246 229 222 215 209 206 207 206 205 204 200
224 239 247 253 261 265 267 261 266 261 262 271 275 277 281 285 290 292 294 296 294 295 298 304 309 311 312 308 296 288 282 284 285 280 270 262 258 251 252 244 229 225 218 209 209 211 207 207 202
243 264 271 273 263 255 264 266 257 259 258 260 266 272 276 280 286 290 289 291 294 294 297 302 302 306 308 305 300 293 283 276 276 273 270 262 257 252 247 250 243 233 225 216 214 213 208 206 203
263 276 268 245 248 254 282 268 239 248 254 265 273 276 279 280 280 279 283 289 294 296 299 297 298 304 308 308 299 290 282 276 270 270 268 263 258 253 248 246 243 238 232 222 219 215 208 206 205
238 251 252 183 249 244 277 273 239 236 267 276 281 282 281 279 276 275 280 283 290 293 297 299 297 300 305 312 304 293 283 274 267 266 266 267 259 253 249 244 244 240 235 225 219 214 210 208 207
220 258 273 280 242 270 265 274 273 276 279 278 279 280 278 277 277 280 279 280 286 287 290 295 294 297 299 302 307 301 287 273 268 265 261 264 262 253 250 244 241 240 235 230 223 217 211 211 211
256 274 277 284 299 282 272 274 282 284 278 273 273 272 269 270 280 288 287 287 285 283 285 290 293 296 300 300 303 306 291 275 267 266 264 262 261 255 252 248 240 236 234 231 226 222 217 214 211
271 272 281 286 301 292 278 282 288 290 275 268 266 261 259 267 281 290 291 288 283 281 283 283 285 293 295 296 302 304 296 284 274 270 267 265 264 258 252 250 243 235 231 230 228 228 221 216 205
250 273 283 292 302 295 292 288 287 281 264 265 263 256 256 265 278 290 292 290 285 282 281 280 278 281 284 285 288 288 288 277 270 270 266 264 264 259 252 248 244 237 234 232 226 225 224 218 202
256 260 283 298 311 279 301 289 254 228 253 258 253 252 252 262 279 289 296 294 291 289 284 278 275 276 278 283 286 288 292 283 269 267 267 264 264 260 253 249 246 238 233 232 227 223 222 220 212
269 263 274 289 301 296 324 300 279 259 268 244 237 232 241 257 287 298 302 303 298 295 288 278 276 275 276 276 276 279 280 283 280 275 269 267 263 259 253 248 247 241 235 232 229 225 224 220 215
263 310 279 279 275 284 247 256 277 243 246 236 234 235 253 271 292 301 304 303 300 299 291 279 276 275 274 271 270 270 272 277 279 273 272 272 266 259 253 247 245 242 237 232 229 226 225 222 219
212 266 265 229 243 258 233 235 274 228 228 230 229 252 272 278 291 301 304 301 300 301 296 284 278 275 273 270 268 266 270 275 278 275 274 274 269 261 255 250 244 243 238 232 229 226 226 226 224
206 256 277 259 239 248 171 242 258 265 253 255 257 270 284 289 290 301 307 304 302 300 297 291 279 275 273 271 268 267 268 272 271 271 269 272 268 262 257 253 247 244 239 233 230 228 226 227 225
201 223 248 277 279 285 239 248 260 280 271 268 269 273 281 284 288 296 301 300 299 299 298 295 284 276 275 274 270 268 268 267 268 269 268 266 262 258 257 254 250 246 241 236 231 229 227 227 225
185 210 268 266 284 277 259 262 280 263 258 256 260 268 278 285 289 295 301 300 298 298 296 294 291 280 278 277 275 271 268 266 269 271 268 265 261 258 254 253 249 246 240 235 232 228 226 227 225
248 176 172 210 262 270 268 266 260 244 245 250 265 273 280 288 292 300 302 302 300 298 296 295 292 287 283 281 280 277 274 271 270 272 267 266 265 258 254 251 248 246 242 236 231 229 225 225 225
179 190 211 222 248 263 279 274 243 250 264 278 284 287 292 294 298 303 304 303 301 298 297 294 291 289 287 285 283 282 280 279 276 275 269 269 270 261 253 250 248 245 240 235 229 226 224 224 223
218 216 202 220 235 238 267 275 271 262 279 287 291 295 295 294 300 303 302 300 298 296 296 296 294 291 289 288 285 283 283 282 279 278 276 273 273 266 253 250 249 244 238 232 229 226 223 222 221
Height
1502 1504 1506 1509 1507 1501 1495 1495 1496 1499 1500 1502 1502 1501 1499 1499 1500 1506 1509 1505 1503 1503 1502 1501 1501 1502 1503 1503 1504 1505 1505 1506 1506 1507 1508 1508 1509 1510 1510 1511 1511 1512 1512 1512 1513 1513 1513 1514 1514
1502 1504 1508 1508 1501 1495 1493 1494 1497 1499 1502 1503 1503 1502 1501 1502 1505 1506 1505 1503 1503 1503 1502 1502 1502 1502 1502 1503 1503 1504 1505 1505 1506 1506 1507 1508 1508 1509 1509 1510 1510 1511 1511 1512 1512 1512 1513 1513 1513
1502 1504 1507 1503 1497 1490 1491 1496 1498 1501 1503 1503 1503 1503 1503 1504 1506 1506 1505 1503 1503 1503 1502 1501 1501 1502 1502 1502 1503 1503 1504 1504 1505 1505 1506 1506 1507 1508 1508 1509 1509 1510 1510 1511 1511 1512 1512 1513 1513
1504 1507 1506 1501 1495 1494 1495 1498 1502 1502 1503 1503 1503 1503 1504 1506 1506 1505 1503 1503 1503 1502 1501 1501 1501 1501 1501 1501 1501 1502 1502 1502 1503 1503 1504 1505 1505 1506 1507 1507 1508 1508 1509 1510 1510 1511 1511 1512 1512
1504 1504 1501 1497 1495 1497 1499 1502 1503 1501 1501 1503 1503 1502 1503 1505 1504 1503 1502 1501 1501 1501 1500 1500 1499 1499 1500 1500 1500 1500 1500 1500 1501 1501 1502 1503 1503 1504 1504 1505 1506 1507 1507 1508 1509 1509 1510 1510 1511
1504 1501 1496 1492 1493 1498 1501 1503 1503 1502 1502 1503 1503 1502 1502 1504 1503 1502 1501 1500 1500 1499 1498 1498 1498 1498 1498 1498 1498 1498 1498 1498 1498 1499 1499 1500 1501 1501 1502 1503 1504 1505 1505 1506 1507 1508 1509 1509 1510
1503 1498 1493 1492 1495 1497 1501 1504 1503 1502 1502 1503 1504 1502 1501 1503 1502 1500 1500 1499 1498 1497 1496 1496 1496 1496 1496 1496 1496 1496 1496 1496 1496 1496 1497 1497 1498 1499 1499 1500 1501 1502 1503 1504 1505 1506 1506 1507 1508
1502 1499 1496 1495 1495 1497 1502 1504 1504 1504 1502 1504 1504 1501 1500 1502 1500 1499 1498 1497 1496 1495 1494 1494 1493 1493 1493 1493 1493 1493 1493 1493 1493 1493 1494 1494 1495 1496 1496 1497 1497 1499 1500 1501 1502 1503 1504 1505 1506
1502 1500 1494 1494 1496 1498 1503 1503 1504 1503 1503 1502 1502 1501 1501 1499 1498 1497 1496 1495 1494 1493 1492 1491 1490 1490 1489 1489 1489 1489 1490 1490 1490 1490 1490 1491 1492 1492 1493 1493 1494 1495 1497 1498 1499 1501 1502 1503 1504
1501 1496 1494 1498 1499 1500 1503 1503 1503 1502 1500 1499 1499 1499 1498 1497 1496 1495 1494 1493 1491 1490 1489 1488 1487 1487 1486 1486 1486 1486 1486 1486 1486 1487 1487 1487 1488 1488 1489 1489 1490 1492 1493 1494 1496 1497 1499 1500 1501
1500 1497 1499 1501 1503 1503 1503 1502 1502 1500 1496 1496 1496 1496 1496 1495 1494 1492 1491 1490 1489 1487 1485 1485 1484 1484 1483 1483 1482 1482 1482 1482 1483 1483 1483 1483 1484 1484 1485 1485 1486 1487 1489 1490 1492 1493 1495 1496 1498
1501 1501 1502 1502 1503 1503 1502 1501 1499 1497 1495 1495 1494 1493 1492 1491 1491 1489 1488 1487 1485 1484 1482 1482 1481 1480 1480 1479 1479 1479 1479 1479 1479 1479 1479 1480 1479 1480 1480 1481 1481 1483 1484 1485 1487 1489 1491 1492 1494
1500 1500 1502 1502 1502 1502 1501 1498 1497 1492 1492 1492 1491 1490 1489 1488 1487 1486 1484 1483 1482 1480 1479 1478 1477 1477 1476 1476 1476 1476 1475 1475 1475 1475 1475 1476 1475 1476 1476 1477 1477 1478 1480 1481 1482 1484 1486 1488 1489
1501 1501 1500 1500 1499 1499 1497 1493 1494 1486 1488 1488 1487 1486 1485 1484 1483 1482 1480 1479 1479 1477 1476 1475 1474 1473 1473 1472 1472 1471 1471 1470 1471 1471 1471 1471 1472 1471 1472 1472 1473 1474 1475 1476 1477 1479 1481 1483 1484
1502 1500 1496 1496 1496 1496 1496 1487 1485 1483 1484 1484 1483 1482 1481 1480 1479 1478 1477 1476 1475 1474 1473 1471 1471 1469 1469 1468 1468 1467 1467 1466 1466 1466 1466 1467 1467 1467 1467 1468 1468 1469 1470 1471 1472 1474 1476 1478 1480
1499 1495 1489 1492 1494 1494 1495 1479 1478 1481 1481 1480 1479 1478 1477 1476 1475 1474 1473 1472 1471 1470 1469 1468 1467 1466 1466 1465 1464 1463 1462 1462 1461 1461 1461 1462 1462 1462 1463 1463 1464 1464 1465 1466 1466 1468 1470 1472 1474
1493 1488 1486 1488 1492 1492 1491 1479 1475 1478 1478 1476 1474 1473 1473 1472 1471 1470 1469 1469 1468 1467 1465 1465 1464 1463 1462 1461 1460 1459 1458 1457 1457 1457 1456 1456 1457 1457 1457 1458 1458 1459 1460 1461 1462 1463 1464 1466 1469
1487 1487 1487 1486 1488 1490 1486 1476 1471 1472 1472 1470 1469 1469 1468 1468 1467 1467 1466 1465 1464 1463 1462 1461 1460 1459 1458 1457 1456 1455 1454 1453 1452 1451 1451 1451 1451 1452 1452 1452 1452 1453 1454 1455 1456 1458 1459 1461 1464
1493 1491 1488 1486 1488 1489 1479 1471 1465 1465 1466 1465 1464 1464 1464 1464 1464 1463 1462 1461 1460 1459 1458 1457 1456 1455 1454 1453 1452 1450 1449 1447 1446 1446 1446 1445 1446 1446 1446 1446 1446 1447 1448 1450 1451 1453 1454 1456 1459
1494 1492 1486 1484 1488 1487 1477 1467 1460 1459 1460 1461 1460 1460 1460 1461 1460 1459 1458 1457 1456 1455 1454 1453 1452 1451 1450 1449 1448 1446 1444 1442 1441 1440 1440 1440 1439 1439 1440 1440 1440 1441 1442 1444 1445 1447 1448 1450 1452
1490 1488 1484 1485 1485 1483 1481 1458 1453 1456 1458 1458 1458 1457 1457 1457 1457 1456 1455 1454 1453 1452 1450 1449 1448 1447 1446 1445 1443 1442 1440 1438 1437 1435 1434 1434 1433 1433 1433 1433 1434 1434 1435 1437 1438 1440 1443 1444 1446
1484 1486 1488 1488 1485 1475 1481 1463 1446 1451 1453 1454 1455 1454 1454 1455 1454 1453 1452 1451 1450 1448 1447 1445 1444 1443 1442 1440 1438 1437 1435 1433 1431 1430 1428 1427 1427 1426 1426 1426 1427 1428 1429 1430 1431 1434 1436 1439 1439
1486 1490 1489 1488 1485 1483 1477 1476 1447 1450 1449 1449 1450 1451 1452 1452 1451 1450 1449 1448 1446 1444 1443 1441 1440 1438 1437 1435 1433 1432 1430 1428 1426 1424 1422 1421 1420 1419 1419 1419 1419 1420 1422 1423 1424 1426 1429 1432 1433
1491 1490 1489 1488 1484 1480 1471 1471 1445 1441 1444 1445 1448 1449 1449 1450 1449 1448 1446 1444 1442 1440 1438 1436 1434 1433 1431 1430 1428 1426 1424 1422 1420 1418 1416 1414 1413 1412 1412 1412 1412 1413 1414 1415 1417 1419 1422 1425 1427
1489 1485 1478 1473 1472 1462 1471 1470 1449 1441 1445 1446 1447 1448 1448 1447 1446 1445 1443 1440 1438 1436 1433 1431 1429 1427 1425 1424 1422 1420 1418 1416 1414 1412 1410 1407 1406 1405 1405 1405 1405 1405 1407 1408 1410 1412 1414 1417 1419
1484 1482 1478 1471 1458 1453 1465 1459 1442 1442 1445 1446 1447 1446 1446 1444 1443 1442 1439 1436 1434 1431 1428 1425 1423 1421 1419 1417 1415 1413 1412 1410 1408 1406 1404 1401 1400 1398 1398 1398 1397 1398 1399 1401 1403 1405 1407 1410 1412
1483 1480 1481 1480 1479 1475 1452 1446 1442 1440 1441 1442 1443 1443 1442 1441 1439 1438 1435 1432 1429 1426 1423 1420 1417 1415 1413 1411 1408 1406 1405 1403 1401 1399 1397 1394 1393 1391 1391 1390 1390 1391 1392 1394 1395 1397 1399 1402 1404
1483 1480 1484 1481 1474 1459 1444 1442 1435 1434 1435 1437 1438 1438 1437 1437 1435 1433 1431 1427 1424 1420 1417 1414 1411 1409 1407 1405 1402 1400 1398 1396 1394 1392 1389 1387 1385 1383 1383 1382 1383 1383 1385 1386 1388 1389 1392 1395 1397
1482 1483 1478 1475 1474 1464 1444 1432 1429 1432 1433 1434 1435 1435 1434 1433 1431 1428 1426 1423 1419 1415 1412 1409 1406 1404 1401 1399 1396 1394 1391 1389 1387 1384 1382 1379 1377 1375 1375 1374 1375 1376 1377 1378 1380 1382 1384 1387 1390
1473 1471 1472 1473 1472 1471 1455 1436 1429 1431 1432 1433 1433 1432 1431 1429 1427 1424 1421 1417 1413 1410 1407 1404 1401 1398 1395 1393 1390 1387 1384 1382 1380 1377 1374 1372 1370 1368 1367 1367 1367 1368 1369 1371 1373 1375 1377 1380 1383